Skip Page Navigation
NASA JPL Caltech
NASA Logo - Jet Propulsion Laboratory + View the NASA Portal
+ Center for Near-Earth Object Studies
JPL Home Earth Solar System Stars & Galaxies Technology
JPL Solar System Dynamics
BODIES ORBITS EPHEMERIDES TOOLS PHYSICAL DATA DISCOVERY FAQ SITE MAP
JPL Small-Body Database Browser
Search: [ help ]  
441314 (2008 AG91)
Classification: Main-belt Asteroid          SPK-ID: 2441314
Ephemeris | Orbit Diagram | Orbital Elements | Mission Design | Physical Parameters | Discovery Circumstances ]

[ show orbit diagram ]
Orbital Elements at Epoch 2459396.5 (2021-Jul-01.0) TDB
Reference: JPL 14 (heliocentric ecliptic J2000)
 Element Value Uncertainty (1-sigma)   Units 
e .07840089856338212 1.0577e-07  
a 2.772688437904349 2.9378e-08 au
q 2.555307172936347 3.0546e-07 au
i 5.520116701820641 5.3779e-06 deg
node 286.153690471851 0.00010079 deg
peri 111.580662866966 0.00014027 deg
M 39.96037042299525 8.1029e-05 deg
tp 2459209.312416152033
(2020-Dec-25.81241615)
0.00038084 TDB
period 1686.35899697491
4.62
2.6802e-05
7.338e-08
d
yr
n .2134776762514916 3.3928e-09 deg/d
Q 2.99006970287235 3.1681e-08 au
  Orbit Determination Parameters
   # obs. used (total)      103  
   data-arc span      5171 days (14.16 yr)  
   first obs. used      2006-10-19  
   last obs. used      2020-12-15  
   planetary ephem.      DE441  
   SB-pert. ephem.      SB441-N16  
   condition code      0  
   norm. resid. RMS      .65847  
   source      ORB  
   producer      Otto Matic  
   solution date      2021-Apr-14 14:40:22  

Additional Information
 Earth MOID = 1.56867 au 
 Jupiter MOID = 2.33627 au 
 T_jup = 3.325 
[ show covariance matrix ]

Ephemeris | Orbit Diagram | Orbital Elements | Mission Design | Physical Parameters | Discovery Circumstances ]

Physical Parameter Table
Parameter Symbol Value Units Sigma Reference Notes
absolute magnitude H 17.49   n/a MPCxxxxx  

441314 (2008 AG91)          Discovered 2008-Jan-13 by Spacewatch at Kitt Peak
Reference: Last Updated: 2015-09-02

Alternate Designations
 2008 AG91 = 2006 UF110 
Ephemeris | Orbit Diagram | Orbital Elements | Mission Design | Physical Parameters | Discovery Circumstances ]
ABOUT SSD CREDITS/AWARDS PRIVACY/COPYRIGHT GLOSSARY LINKS
FirstGov 2021-Jul-25 03:47 UT
(server date/time)  
NASA Home Page
Site Manager:   Ryan S. Park
Webmaster  Alan B. Chamberlin